Terminal Aerodrome Forecast
Issued by NWS Des Moines, IA

Home | Current Version | Previous Version | Text Only | Print | Product List | Glossary On
Versions: 1 2 3 4 5 6 7 8 9 10 11 12 13 14 15 16 17 18 19 20 21 22 23 24 25 26 27 28 29 30 31 32 33 34 35 36 37 38 39 40 41 42 43 44 45 46 47 48 49 50
000
FTUS43 KDMX 262326
TAFDSM
TAF
KDSM 262326Z 2700/2724 26006KT P6SM VCTS SCT013 SCT025CB OVC060
      TEMPO 2700/2702 SCT018CB BKN025 OVC035
     FM270200 28005KT P6SM SCT035
     FM270800 30005KT 5SM BR BKN030
     FM271300 29006KT P6SM SCT250=

USA.gov is the U.S. government's official web portal to all federal, state and local government web resources and services.